Location: Newark
(48.6461°N, 4.3644°W)
Time: 14:41:02
(UTC+00:00)

Explorer 11/Cluster Stage 4 - All Passes

Search period start: 17 January 2020 00:00
Search period end: 27 January 2020 00:00
Orbit: 467 x 1259 km, 28.8° (Epoch: 17 January)

Date Brightness Start Highest point End Pass type
(mag) Time Alt. Az. Time Alt. Az. Time Alt. Az.
21 Jan - 16:13:47 10° S 16:14:43 10° S 16:15:38 10° SSE daylight
21 Jan - 18:00:41 10° SSW 18:02:13 11° S 18:03:42 10° S visible
22 Jan - 16:01:21 10° SSW 16:03:46 12° S 16:06:04 10° SSE daylight
22 Jan - 17:49:09 10° SSW 17:51:18 12° S 17:53:20 10° S visible
23 Jan - 15:49:34 10° SSW 15:52:48 13° S 15:55:49 10° SSE daylight
23 Jan - 17:37:48 10° SSW 17:40:22 12° S 17:42:46 10° SSE visible
24 Jan - 15:38:00 10° SSW 15:41:47 14° S 15:45:22 10° SE daylight
24 Jan - 17:26:33 10° SW 17:29:24 13° SSW 17:32:04 10° SSE daylight
25 Jan - 13:41:33 10° S 13:43:04 11° SSE 13:44:34 10° SSE daylight
25 Jan - 15:26:34 10° SSW 15:30:47 15° S 15:34:45 10° SE daylight
25 Jan - 17:15:23 10° SW 17:18:24 13° SSW 17:21:15 10° S daylight
26 Jan - 13:29:17 10° S 13:32:00 12° SSE 13:34:41 10° SE daylight
26 Jan - 15:15:14 10° SSW 15:19:45 16° S 15:24:03 10° SE daylight
26 Jan - 17:04:18 10° SW 17:07:24 13° SSW 17:10:21 10° S daylight
